[TLELIST] Archives

 

[list_settings.list_name] Current TLEs

July 11th 2010 PST

HST 1 20580U 90037B 10192.11763225 .00000324 00000-0 11931-4 0 6001 2 20580 028.4689 083.6328 0003491 098.9928 261.1041 15.00995925908351 ISS (ZARYA) 1 25544U 98067A 10192.29590416 .00008110 00000-0 64272-4 0 4900 2 25544 051.6464 107.1782 0010296 066.3096 078.2771 15.72323985667266 CXO 1 25867U 99040B 10192.83333333 -.00000392 00000-0 10000-3 0 4873 2 25867 067.2519 052.2974 8201733 275.3005 354.9433 00.37804110 6488 ____________________________________________________________________ These 2-Line ...Continue Reading

[list_settings.list_name] Current TLEs

July 10th 2010 PST

HST 1 20580U 90037B 10190.18937482 .00000381 00000-0 16333-4 0 5995 2 20580 028.4687 096.2238 0003408 078.5805 281.5164 15.00995699908063 ISS (ZARYA) 1 25544U 98067A 10191.39894065 .00006846 00000-0 55031-4 0 4847 2 25544 051.6465 111.7720 0010297 062.9114 041.1270 15.72303086667122 CXO 1 25867U 99040B 10190.20833333 -.00000388 00000-0 10000-3 0 4861 2 25867 067.2480 052.4398 8195247 275.3243 357.5015 00.37795652 6477 ____________________________________________________________________ These 2-Line ...Continue Reading

[list_settings.list_name] Current TLEs

July 9th 2010 PST

HST 1 20580U 90037B 10190.18937482 .00000381 00000-0 16333-4 0 5995 2 20580 028.4687 096.2238 0003408 078.5805 281.5164 15.00995699908063 ISS (ZARYA) 1 25544U 98067A 10190.32558671 .00006670 00000-0 53776-4 0 4770 2 25544 051.6464 117.2697 0010268 059.0516 085.4302 15.72286253666959 CXO 1 25867U 99040B 10190.20833333 -.00000388 00000-0 10000-3 0 4861 2 25867 067.2480 052.4398 8195247 275.3243 357.5015 00.37795652 6477 ____________________________________________________________________ These 2-Line ...Continue Reading

[list_settings.list_name] Current TLEs

July 8th 2010 PST

HST 1 20580U 90037B 10189.12550785 .00000406 00000-0 18222-4 0 5980 2 20580 028.4681 103.1700 0003373 068.1193 291.9745 15.00995398907903 ISS (ZARYA) 1 25544U 98067A 10189.36321878 .00007153 00000-0 57360-4 0 4724 2 25544 051.6463 122.1981 0010178 055.6023 038.0183 15.72273962666802 CXO 1 25867U 99040B 10190.20833333 -.00000388 00000-0 10000-3 0 4861 2 25867 067.2480 052.4398 8195247 275.3243 357.5015 00.37795652 6477 ____________________________________________________________________ These 2-Line ...Continue Reading

[list_settings.list_name] Current TLEs

July 7th 2010 PST

HST 1 20580U 90037B 10188.12813392 .00000401 00000-0 17833-4 0 5976 2 20580 028.4678 109.6798 0003295 057.6753 302.4250 15.00994865907755 ISS (ZARYA) 1 25544U 98067A 10188.35512752 .00008719 00000-0 68917-4 0 4667 2 25544 051.6464 127.3606 0010217 051.6723 092.1617 15.72263727666644 CXO 1 25867U 99040B 10187.54166667 -.00000296 00000-0 10000-3 0 4850 2 25867 067.2345 052.5771 8194366 275.3438 354.3992 00.37803014 6460 ____________________________________________________________________ These 2-Line ...Continue Reading

[list_settings.list_name] Current TLEs

July 6th 2010 PST

HST 1 20580U 90037B 10185.13600233 .00000230 00000-0 47525-5 0 5963 2 20580 028.4686 129.2092 0003036 024.6125 335.4638 15.00992912907307 ISS (ZARYA) 1 25544U 98067A 10187.45809149 .00005988 00000-0 48840-4 0 4619 2 25544 051.6462 131.9586 0010202 048.2613 054.8241 15.72242965666508 CXO 1 25867U 99040B 10187.54166667 -.00000296 00000-0 10000-3 0 4850 2 25867 067.2345 052.5771 8194366 275.3438 354.3992 00.37803014 6460 ____________________________________________________________________ These 2-Line ...Continue Reading

[list_settings.list_name] Current TLEs

July 5th 2010 PST

HST 1 20580U 90037B 10185.13600233 .00000230 00000-0 47525-5 0 5963 2 20580 028.4686 129.2092 0003036 024.6125 335.4638 15.00992912907307 ISS (ZARYA) 1 25544U 98067A 10186.44012351 -.00012249 00000-0 -85997-4 0 4544 2 25544 051.6470 137.1724 0009981 043.5950 053.8707 15.72233984666342 CXO 1 25867U 99040B 10184.91666667 -.00000238 00000-0 10000-3 0 4848 2 25867 067.2170 052.7416 8193803 275.3234 357.0619 00.37807666 6455 ____________________________________________________________________ These 2-Line ...Continue Reading

[list_settings.list_name] Current TLEs

July 4th 2010 PST

HST 1 20580U 90037B 10185.13600233 .00000230 00000-0 47525-5 0 5963 2 20580 028.4686 129.2092 0003036 024.6125 335.4638 15.00992912907307 ISS (ZARYA) 1 25544U 98067A 10185.48760692 .00036079 00000-0 27007-3 0 4479 2 25544 051.6473 142.0502 0010134 039.5490 063.0543 15.72237682666193 CXO 1 25867U 99040B 10184.91666667 -.00000238 00000-0 10000-3 0 4848 2 25867 067.2170 052.7416 8193803 275.3234 357.0619 00.37807666 6455 ____________________________________________________________________ These 2-Line ...Continue Reading

[list_settings.list_name] Current TLEs

July 3rd 2010 PST

HST 1 20580U 90037B 10184.07213341 .00000377 00000-0 16007-4 0 5956 2 20580 028.4679 136.1551 0003144 011.5865 348.4829 15.00992764907145 ISS (ZARYA) 1 25544U 98067A 10184.47004749 .00011710 00000-0 91217-4 0 4392 2 25544 051.6471 147.2569 0010012 037.5194 061.8896 15.72191638666035 CXO 1 25867U 99040B 10184.91666667 -.00000238 00000-0 10000-3 0 4848 2 25867 067.2170 052.7416 8193803 275.3234 357.0619 00.37807666 6455 ____________________________________________________________________ These 2-Line ...Continue Reading

[list_settings.list_name] Current TLEs

July 2nd 2010 PST

HST 1 20580U 90037B 10182.34335461 .00000234 00000-0 17837-4 0 5945 2 20580 028.4682 147.4498 0002892 358.8779 001.2267 15.00992347906881 ISS (ZARYA) 1 25544U 98067A 10183.51701549 .00011952 00000-0 93098-4 0 4317 2 25544 051.6467 152.1351 0009959 034.1921 067.5748 15.72169134665880 CXO 1 25867U 99040B 10182.29166667 -.00000265 00000-0 10000-3 0 4831 2 25867 067.2048 052.8759 8191150 275.2999 359.7639 00.37805213 6446 ____________________________________________________________________ These 2-Line ...Continue Reading
  • This mailing list is a public mailing list - anyone may join or leave, at any time.
  • This mailing list is announce-only.

International Space Station (ISS) / Hubble Space Telescope (HST) / Chandra X-Ray Observatory Orbital Data via EMAIL

Privacy Policy:

Private list